TimeMDT,TemperatureF,Dew PointF,Humidity,Sea Level PressureIn,VisibilityMPH,Wind Direction,Wind SpeedMPH,Gust SpeedMPH,PrecipitationIn,Events,Conditions,WindDirDegrees,DateUTC
12:13 AM,64.4,12.2,13,30.02,10.0,West,19.6,21.9,N/A,,Clear,260,2013-09-30 06:13:00
12:58 AM,61.0,16.0,17,29.78,10.0,NW,5.8,-,N/A,,Clear,320,2013-09-30 06:58:00
1:58 AM,63.9,16.9,16,29.76,10.0,WSW,11.5,-,N/A,,Clear,250,2013-09-30 07:58:00
2:58 AM,61.5,19.4,20,29.78,10.0,WNW,8.1,-,N/A,,Clear,290,2013-09-30 08:58:00
3:58 AM,54.9,24.4,31,29.80,10.0,NNW,8.1,-,N/A,,Clear,330,2013-09-30 09:58:00
4:58 AM,46.8,26.8,46,29.83,10.0,North,8.1,-,N/A,,Clear,360,2013-09-30 10:58:00
5:58 AM,45.3,26.6,48,29.86,10.0,North,8.1,-,N/A,,Clear,350,2013-09-30 11:58:00
6:58 AM,43.5,28.9,56,29.89,10.0,North,6.9,-,N/A,,Clear,10,2013-09-30 12:58:00
7:58 AM,49.8,30.0,47,29.86,10.0,NE,8.1,-,N/A,,Clear,40,2013-09-30 13:58:00
8:58 AM,55.2,34.9,46,29.87,10.0,NNW,4.6,-,N/A,,Clear,330,2013-09-30 14:58:00
9:58 AM,64.6,34.0,32,29.81,10.0,South,4.6,-,N/A,,Clear,170,2013-09-30 15:58:00
10:58 AM,70.2,28.9,22,29.75,10.0,SSE,10.4,-,N/A,,Clear,160,2013-09-30 16:58:00
11:58 AM,72.0,25.7,18,29.72,10.0,South,11.5,-,N/A,,Clear,170,2013-09-30 17:58:00
12:58 PM,73.2,29.1,20,29.70,10.0,Variable,6.9,-,N/A,,Clear,0,2013-09-30 18:58:00
1:58 PM,77.0,31.3,19,29.65,10.0,South,10.4,-,N/A,,Clear,170,2013-09-30 19:58:00
2:58 PM,78.1,31.6,18,29.63,10.0,SSE,10.4,-,N/A,,Clear,160,2013-09-30 20:58:00
3:58 PM,80.4,32.9,18,29.61,10.0,South,8.1,-,N/A,,Clear,190,2013-09-30 21:58:00
4:58 PM,80.8,33.4,18,29.63,10.0,South,13.8,-,N/A,,Clear,170,2013-09-30 22:58:00
5:58 PM,78.4,36.7,22,29.67,10.0,NNW,10.4,-,N/A,,Clear,340,2013-09-30 23:58:00
6:58 PM,68.0,40.5,37,29.75,10.0,North,9.2,-,N/A,,Clear,350,2013-10-01 00:58:00
7:58 PM,60.8,40.5,47,29.78,10.0,Variable,2.3,-,N/A,,Clear,0,2013-10-01 01:58:00
8:58 PM,64.0,22.8,21,29.77,10.0,Variable,4.6,-,N/A,,Clear,0,2013-10-01 02:58:00
9:58 PM,67.8,21.6,17,29.74,10.0,West,11.5,20.7,N/A,,Clear,260,2013-10-01 03:58:00
10:58 PM,62.6,27.3,26,29.75,10.0,NE,1.2,-,N/A,,Clear,50,2013-10-01 04:58:00
11:58 PM,59.7,24.6,26,29.76,10.0,NW,8.1,-,N/A,,Clear,320,2013-10-01 05:58:00